Cloud_Cover
5 5 5 37 100 97 99 84 24 72 28 22 5 5 5 5 5 23 5 5 5 5 3 0 0 0 2 0 6 33 12 4 0 0 0 0 0 0 0 0 0 0 4 9 0 0 0 59 9
5 19 57 6 98 100 83 90 75 12 5 4 4 8 5 5 5 3 5 5 5 4 2 2 0 0 0 19 31 55 1 5 46 37 0 0 0 0 0 0 0 0 2 2 6 0 0 0 0
5 56 73 65 58 81 66 49 21 5 5 5 2 5 4 4 5 4 5 4 3 4 5 1 0 0 0 1 7 9 38 7 7 0 0 0 0 0 0 0 0 0 0 0 0 13 2 0 0
5 5 45 79 69 63 56 15 5 5 5 5 5 5 4 2 5 5 2 1 5 5 5 5 2 0 0 0 0 0 11 0 0 0 0 0 0 0 0 0 0 0 0 0 0 0 15 0 0
4 5 5 5 22 98 70 7 5 5 5 5 5 5 5 5 5 5 5 0 2 1 0 0 0 0 1 0 0 0 58 10 13 0 0 0 0 0 0 0 0 0 0 0 0 0 1 13 0
5 5 6 5 8 24 41 43 5 5 5 5 5 5 5 5 5 4 5 4 1 0 3 0 0 0 8 0 3 75 100 78 0 0 0 0 0 0 0 0 0 0 0 0 0 0 23 13 0
5 5 8 5 5 6 5 5 5 5 5 5 5 5 3 0 4 5 3 2 0 0 0 0 5 0 0 0 0 47 89 57 0 0 0 0 0 0 0 0 0 0 0 0 0 0 21 23 0
5 5 5 5 7 5 5 5 5 5 5 5 1 4 0 5 5 5 5 5 6 1 0 7 19 44 0 50 2 0 0 2 0 10 0 0 0 0 0 0 0 0 0 0 0 0 0 0 0
0 5 59 22 19 5 5 5 9 5 5 5 5 1 0 1 0 4 5 10 78 25 72 30 19 39 43 52 61 0 0 2 55 1 0 0 0 0 0 0 0 0 0 0 0 0 0 0 0
4 5 5 15 7 5 5 5 5 5 5 0 0 0 0 0 0 1 1 0 0 0 0 0 0 15 43 75 100 99 76 43 34 35 38 0 0 0 0 0 0 0 0 0 0 0 0 0 0
31 5 5 5 5 5 5 5 5 5 3 0 0 0 0 0 0 0 5 0 0 0 0 0 0 0 0 11 39 84 88 27 69 100 100 79 2 6 0 0 0 0 0 0 0 0 0 0 0
62 94 95 44 25 10 7 5 5 5 5 5 5 5 5 5 5 5 5 0 0 0 0 0 0 0 0 3 36 94 100 98 11 8 99 100 100 60 12 1 0 0 0 0 0 0 0 0 0
87 96 67 37 70 74 61 39 5 5 5 5 5 5 5 5 5 5 0 0 0 0 0 0 0 0 0 2 23 36 83 100 100 100 97 100 92 37 40 91 20 2 0 0 0 0 0 0 0
5 31 60 10 5 5 5 5 5 5 5 5 5 5 3 5 1 0 0 0 0 0 0 0 0 0 0 0 0 0 1 6 36 94 100 100 100 99 100 37 5 67 24 0 0 0 0 0 0
5 5 5 5 5 5 5 5 5 5 5 5 5 5 5 0 2 0 0 0 0 0 0 0 0 0 0 0 0 0 0 0 0 0 1 7 47 100 100 99 97 62 67 51 22 15 5 1 0
38 53 81 59 49 29 27 99 5 8 15 17 5 5 3 0 0 0 0 0 0 0 0 0 0 0 0 0 0 0 0 0 0 0 0 0 0 0 0 0 17 86 100 96 62 73 95 59 4
72 85 87 100 53 88 32 10 5 25 7 5 5 5 5 5 3 3 0 0 0 0 0 0 0 0 0 0 0 0 0 0 0 0 0 0 0 0 0 0 0 0 5 84 100 100 71 57 66
5 5 36 41 48 5 5 5 10 5 6 68 60 12 20 6 5 4 0 0 0 0 0 0 0 0 0 0 0 0 0 0 0 0 0 0 0 0 0 0 0 0 0 0 45 97 100 96 23
100 100 100 96 100 100 100 100 100 100 100 92 68 43 9 5 0 0 0 0 0 0 0 0 0 0 0 0 0 0 0 0 0 0 0 0 0 0 0 0 0 0 0 0 0 14 22 99 100
5 5 28 70 94 60 30 5 27 16 5 4 0 0 0 0 0 0 0 0 0 0 0 0 0 0 0 0 0 0 0 0 0 0 0 0 0 0 0 0 0 0 0 0 0 0 4 14 72
100 100 92 38 5 5 5 5 2 3 2 0 0 0 0 0 0 0 0 0 0 0 0 0 0 0 0 0 0 0 0 0 0 0 0 0 0 0 0 0 0 0 0 0 0 0 0 0 0
5 10 16 5 5 5 3 2 0 0 0 0 0 0 0 0 0 0 0 0 0 0 0 0 0 0 0 0 0 0 0 0 0 0 0 0 0 0 0 0 0 0 0 0 0 0 0 0 0
4 4 5 5 0 0 0 0 0 0 0 0 0 0 0 0 0 0 0 0 0 0 0 0 0 0 0 0 0 0 0 0 0 0 0 0 0 0 0 0 0 0 0 0 0 0 0 0 0
0 0 0 0 0 0 0 0 0 2 2 5 5 0 0 0 0 0 0 0 0 0 0 0 0 0 0 0 0 0 0 0 0 0 0 0 0 0 0 0 0 0 1 0 0 0 0 0 0
0 0 0 0 0 0 1 4 7 4 5 12 8 2 0 0 0 0 0 0 0 0 0 0 0 0 0 0 0 0 0 0 0 0 0 0 0 0 0 0 0 5 5 5 3 0 0 0 0
0 0 0 0 0 1 13 5 5 17 8 5 1 5 5 5 2 0 0 0 0 0 0 0 0 0 0 0 0 0 0 0 0 0 0 0 0 0 0 0 0 0 4 5 5 2 0 3 0
0 0 0 0 5 5 6 47 100 100 23 1 5 5 5 5 1 0 0 0 0 0 0 0 0 0 0 0 0 0 0 0 0 0 0 0 0 0 0 0 5 5 5 5 5 5 5 5 4
0 5 5 5 5 6 62 58 89 100 5 0 0 1 1 0 0 0 0 0 0 0 0 0 0 0 0 0 0 0 0 0 0 0 0 0 2 3 4 5 5 5 57 32 5 5 32 5 5
5 5 5 5 9 5 65 98 5 23 5 1 1 0 0 0 0 0 0 0 0 0 0 0 0 0 0 0 0 0 0 0 0 2 3 5 5 5 5 34 13 45 50 96 9 86 100 100 7
6 30 58 68 30 32 33 32 98 0 0 0 0 0 0 0 0 0 0 0 0 0 0 0 0 0 0 0 0 0 0 2 5 5 5 5 5 5 57 97 99 100 100 99 28 98 79 100 100